Regional Weather Roundup
Issued by NWS Sterling, VA

Home | Current Version | Previous Version | Text Only | Print | Product List | Glossary Off
Versions: 1 2 3 4 5 6 7 8 9 10 11 12 13 14 15 16 17 18 19 20 21 22 23 24 25 26 27 28 29 30 31 32 33 34 35 36 37 38 39 40 41 42 43 44 45 46 47 48 49 50

000
ASUS41 KLWX 072010
RWRLWX

REGIONAL WEATHER ROUNDUP
NATIONAL WEATHER SERVICE BALTIMORE MD/WASHINGTON DC
300 PM EST SUN FEB 07 2016

Note: "FAIR" indicates few or no clouds below 12,000 feet
with no significant weather and/or obstructions to visibility.
 TC=TEMPERATURE CELSIUS

 * =Non NWS site. Station does not report precipitation (e.g. rain,
    snow, etc.), thunder, or fog.

DCZ001-MDZ009-015-VAZ040>042-051-053>054-072100-
WASHINGTON METRO

CITY           SKY/WX    TMP DP  RH WIND       PRES   REMARKS
WASHINGTON NAT CLOUDY    46  21  37 N14       30.02F
DULLES         CLOUDY    45  21  38 N10       30.02F
ANDREWS AFB    CLOUDY    43  21  41 NE12      29.99F
FT BELVOIR     FAIR      46  18  33 VRB5      30.00F
QUANTICO       FAIR      46  22  38 NE13      30.02F
COLLEGE PARK*  FAIR      45  18  33 NE7       30.03F
LEESBURG*      FAIR      45  23  42 N8        30.03F
MANASSAS*      SUNNY     45  21  39 N10       30.02F
GAITHERSBURG*  MOSUNNY   45  19  36 N7        30.05F

$$

MDZ006>007-011-014-072100-
BALTIMORE METRO

CITY           SKY/WX    TMP DP  RH WIND       PRES   REMARKS
BWI AIRPORT    CLOUDY    44  20  38 N7        30.02F
MD SCIENCE CTR   N/A     45  19  35 MISG      30.02F
MARTIN STATE   CLOUDY    45  25  45 N7        30.05F
ANNAPOLIS      CLOUDY    41  24  51 N9        30.01F
FORT MEADE*    CLOUDY    43  19  39 NE5       30.05F

$$

MDZ012-015-019>023-072100-
MARYLAND EASTERN SHORE

CITY           SKY/WX    TMP DP  RH WIND       PRES   REMARKS
OCEAN CITY     CLOUDY    41  31  67 NE13G24   29.98S
SALISBURY      CLOUDY    42  23  46 NE13      30.00R
BAY BRIDGE AP*   N/A     39  30  70 N5        30.03F
CAMBRIDGE*     MOSUNNY   43  27  52 NE8       29.99F
EASTON*        CLOUDY    45  28  53 N10       30.04F

$$

MDZ017>025-072100-
SOUTHERN MARYLAND

CITY           SKY/WX    TMP DP  RH WIND       PRES   REMARKS
PATUXENT RIVER CLOUDY    41  29  62 N10       30.00F
ST INIGOES     CLOUDY    43  27  53 VRB5      29.99F
LEONARDTOWN*   CLOUDY    41  27  56 N6        30.01S

$$

MDZ003>005-072100-
NORTH CENTRAL MARYLAND

CITY           SKY/WX    TMP DP  RH WIND       PRES   REMARKS
FREDERICK*     SUNNY     45  27  49 VRB5      30.06F
HAGERSTOWN APT SUNNY     44  21  40 NW6       30.00F
WESTMINSTER*   MOSUNNY   43  28  56 NE6       30.02F

$$

MDZ501>502-072100-
WESTERN MARYLAND

CITY           SKY/WX    TMP DP  RH WIND       PRES   REMARKS
OAKLAND*       SUNNY     37  21  52 NW3       29.95F
CUMBERLAND*    SUNNY     48  25  40 S3        30.04F

$$

VAZ025>031-072100-
SHENANDOAH VALLEY

CITY           SKY/WX    TMP DP  RH WIND       PRES   REMARKS
WINCHESTER*    FAIR      45  25  45 NE6       30.01F
FRONT ROYAL*   FAIR      43  23  45 CALM      30.01F
LURAY*         FAIR      43  23  45 CALM      30.00F
NEW MARKET*    FAIR      44  25  48 N6        29.99F
STAUNTON*      FAIR      46  29  51 CALM      30.01F
WAYNESBORO*    FAIR      40  21  46 N6        29.98F

$$

WVZ021-048>050-054>055-072100-
EASTERN WEST VIRGINIA PANHANDLE

CITY           SKY/WX    TMP DP  RH WIND       PRES   REMARKS
MARTINSBURG    FAIR      44  21  40 N5        30.01F
PETERSBURG*    FAIR      47  24  39 CALM      29.99F

$$

VAZ036>039-050-072100-
CENTRAL FOOTHILLS

CITY           SKY/WX    TMP DP  RH WIND       PRES   REMARKS
CHARLOTTESVILL FAIR      46  23  40 N7        29.99F
CULPEPER*      FAIR      45  24  43 N9        30.02F
ORANGE*        FAIR      45  23  42 N9        30.01F
GORDONSVILLE*  FAIR      45  24  43 N6        29.98F
WARRENTON*     FAIR      46  26  46 NE10      30.00F

$$

VAZ055>057-072100-
NORTH AND CENTRAL PIEDMONT

CITY           SKY/WX    TMP DP  RH WIND       PRES   REMARKS
FREDERICKSBRG* FAIR      45  21  39 NE7       30.00F
STAFFORD*      FAIR      44  17  32 NE7       30.04F

$$

NCZ024-NYZ072-PAZ021-071-VAZ022-071-072100-
OTHER REGIONAL OBSERVATIONS

CITY           SKY/WX    TMP DP  RH WIND       PRES   REMARKS
NEW YORK CITY  PTSUNNY   46  21  37 VRB6      30.08F
PHILADELPHIA   CLOUDY    46  21  37 NE7       30.02F
PITTSBURGH     MOSUNNY   50  20  30 SW9       29.94F
ROANOKE        CLOUDY    46  23  40 NE7       29.99F
RICHMOND       CLOUDY    43  23  45 NE10      29.97F
RALEIGH        CLOUDY    43  22  43 N7        29.94F

$$

ANZ530>537-072100-
MARINE OBSERVATIONS

STATION/POSITION TIME  TEMP    WIND        PRES
                       AIR SEA DIR/SP/G
                 (UTC) (F)     (DEG/KT/KT) (MB)
THOMAS PT LIGHT  2000   39 39   10/ 11/ 12 1016.8F
BALT KEY BRIDGE  1900   37     150/  3/  5 1018.1F
COVE POINT       1900   37     360/ 17/ 19 1017.1F
LEWISETTA        1900   42 42   30/  7/ 12 1015.2F
SOLOMONS ISLAND  1900   41 41  360/ 11/ 13   N/A

$$




USA.gov is the U.S. government's official web portal to all federal, state and local government web resources and services.